Tracking 29892 objects as of 21-Nov-2024
HD Live streaming from Space Station
objects crossing your sky now

GORIZONT 9

Track GORIZONT 9 now!
GORIZONT 9 is classified as:


NORAD ID: 14940
Int'l Code: 1984-041A
Perigee: 35,782.6 km
Apogee: 35,832.2 km
Inclination: 9.8 °
Period: 1,436.8 minutes
Semi major axis: 42178 km
RCS: 3.9811 m2 (large)
Launch date: April 22, 1984
Source: Commonwealth of Independent States (former USSR) (CIS)
Launch site: TYURATAM MISSILE AND SPACE COMPLEX (TTMTR)
Your satellite tracking list
Your tracking list is empty




NASA's NSSDC Master Catalog

Two Line Element Set (TLE):
1 14940U 84041A   24325.83014634 -.00000141  00000-0  00000-0 0  9997
2 14940   9.8386 316.1679 0005880 260.0191 222.8083  1.00223218116199
Source of the keplerian elements: AFSPC